User: anonymous   Login
Location: NJAA Observatory
(40.6819°N, 74.8979°W)
Time: 15:02:24
(UTC-05:00)
Language:

Meteor 1-28 Rocket - Orbit

View from above orbital plane
View from above orbital plane
View from above satellite
View from above satellite

Ground track
Ground track

The orbit data is extracted from the following two-line orbital elements,

1 10114U 77057B   17328.25843387 +.00000521 +00000-0 +29578-4 0  9997
2 10114 097.2055 142.5994 0015507 116.7769 243.5054 15.16898504207612
Epoch (UTC): 24 November 2017 06:12:08
Eccentricity: 0.0015507
inclination: 97.2055°
perigee height: 504 km
apogee height: 526 km
right ascension of ascending node: 142.5994°
argument of perigee: 116.7769°
revolutions per day: 15.16898504
mean anomaly at epoch: 243.5054°
orbit number at epoch: 20761

The dashed part of the orbit path shows where the satellite is in the earth's shadow,  

DLR